User: anonymous   Login
Location: Ocean City
(38.3360°N, 75.0850°W)
Time: 05:04:39
(UTC-04:00)
Language:

MOZHAYETS 4 - Orbit

View from above orbital plane
View from above orbital plane
View from above satellite
View from above satellite

Ground track
Ground track

The orbit data is extracted from the following two-line orbital elements,

1 27939U 03042A   19146.17204636  .00000106  00000-0  27572-4 0  9993
2 27939  98.0369 282.4517 0013859 137.6975 222.5297 14.66780573837093
Epoch (UTC): 26 May 2019 04:07:44
Eccentricity: 0.0013859
inclination: 98.0369°
perigee height: 661 km
apogee height: 681 km
right ascension of ascending node: 282.4517°
argument of perigee: 137.6975°
revolutions per day: 14.66780573
mean anomaly at epoch: 222.5297°
orbit number at epoch: 83709

The dashed part of the orbit path shows where the satellite is in the earth's shadow,  

DLR